[[{"header":{"parameterUnit":"m.s-1","parameterCategory":1,"la1":30.2991,"la2":30.254,"lo1":-89.0895,"lo2":-89.0444,"dy":0.0017,"dx":0.0017,"nx":28,"ny":28,"refTime":"2024-02-18T09:00:00:Z","depth":0,"parameterNumber":2,"parameterNumberName":"U-component_of_WINDS"},"data":[0,0,0,0,0,0,0,0,0,0,0,0,0,0,0,0,0,0,0,0,0,0,0,0,0,0,0,0,0,0,0,0,0,0,0,0,0,0,0,0,0,0,0,0,0,0,0,0,0,0,0,0,0,0,0,0,0,0,0.2729,0.2728,0,0.2665,0.2664,0.2664,0.2634,0.2634,0.2634,0.2634,0.2567,0.2565,0.2563,0,0,0,0,0,0,0,0,0,0,0,0,0,0.2823,0.2822,0.2729,0.2728,0.2727,0.2665,0.2664,0.2663,0.2634,0.2634,0.2634,0.2634,0.2568,0.2565,0.2563,0,0,0,0,0,0,0,0,0,0,0,0,0,0.2773,0.2821,0.2729,0.2705,0.2702,0.2665,0.2664,0.2663,0.2634,0.2634,0.2634,0.2634,0.2568,0.2566,0.2563,0.2545,0,0,0.2555,0.2553,0,0,0,0,0,0,0,0,0.2776,0.277,0.2709,0.2706,0.2703,0.2657,0.2673,0.2623,0.2634,0.266,0.2634,0.2634,0.2597,0.2592,0.258,0.2542,0.2539,0.2554,0.2553,0.2552,0.2551,0,0,0,0,0,0,0,0.278,0.2772,0.2703,0.2708,0.2705,0.2697,0.269,0.2664,0.2629,0.2657,0.2655,0.2648,0.2595,0.2582,0.2578,0.2538,0.2554,0.2552,0.255,0.2549,0.2482,0.2482,0,0,0,0,0,0,0.2787,0.2775,0.2705,0.2702,0.2741,0.2695,0.2687,0.2672,0.2629,0.2622,0.2648,0.2647,0.2587,0.2581,0.2575,0.2551,0.2552,0.2549,0.2547,0.2482,0.2482,0.2482,0,0,0,0,0,0,0.2789,0.2781,0.2708,0.2738,0.2728,0.2693,0.2677,0.2671,0.2658,0.2622,0.2615,0.2641,0.2587,0.2579,0.2553,0.2549,0.2548,0.2545,0.2482,0.2482,0.2482,0.2503,0,0,0,0,0,0,0.2792,0.2782,0.2775,0.2738,0.2727,0.2687,0.2676,0.2669,0.2653,0.2651,0.2614,0.2608,0.2586,0.2557,0.255,0.2545,0.2543,0.2483,0.2482,0.2482,0.2503,0.2504,0.2505,0,0,0,0,0,0.2796,0.2783,0.2775,0.2767,0.2717,0.2687,0.268,0.2656,0.2653,0.2646,0.2623,0.2609,0.2551,0.2555,0.2547,0.254,0.2483,0.2482,0.2482,0.2502,0.2504,0.2505,0,0,0,0,0,0,0.282,0.2778,0.2768,0.2743,0.2719,0.2682,0.2671,0.2658,0.2634,0.2633,0.2604,0.2596,0.2572,0.2553,0.2559,0.2521,0.2515,0.2513,0.2534,0.2534,0.2535,0.254,0.2541,0,0,0,0,0,0.2823,0.2802,0.2766,0.2748,0.2736,0.2706,0.2692,0.2676,0.2649,0.2638,0.2613,0.2588,0.2563,0.2548,0.2524,0.25,0.2492,0.2492,0.2493,0.2494,0.2493,0.2479,0.2479,0.2481,0.2481,0.2481,0,0,0.2827,0.2802,0.279,0.2752,0.2731,0.271,0.2697,0.2675,0.2659,0.2635,0.2608,0.2589,0.2559,0.2534,0.2522,0.2518,0.249,0.2494,0.2495,0.2493,0.2479,0.2478,0.2478,0.2481,0.2481,0.2481,0,0,0.2825,0.2804,0.2787,0.2766,0.2735,0.2715,0.2711,0.2676,0.2663,0.2636,0.2617,0.2598,0.2557,0.2536,0.252,0.2511,0.2498,0.2504,0.2509,0.2496,0.2496,0.2496,0.2492,0.2492,0.2503,0.2503,0.2503,0,0.2835,0.2803,0.2779,0.2758,0.2742,0.272,0.2702,0.2683,0.2645,0.2634,0.2631,0.258,0.2557,0.2527,0.2525,0.2513,0.2507,0.2508,0.2498,0.2497,0.2497,0.2493,0.2492,0.2504,0.2504,0.2504,0.2504,0,0.2816,0.2795,0.2784,0.2749,0.2732,0.2712,0.2685,0.267,0.2656,0.2637,0.261,0.2583,0.2553,0.2545,0.253,0.2513,0.2512,0.2504,0.2497,0.2498,0.2494,0.2493,0.2505,0.2505,0.2505,0.2504,0,0,0.2827,0.278,0.2776,0.276,0.2725,0.2707,0.2687,0.2659,0.2647,0.2622,0.2604,0.257,0.2563,0.2545,0.2528,0.2517,0.2512,0.251,0.2509,0.2511,0.2491,0.2497,0.2496,0.2503,0.2503,0.2502,0.2493,0,0.282,0.2783,0.2761,0.2733,0.2713,0.2692,0.2674,0.2651,0.2633,0.2612,0.2592,0.2568,0.256,0.2549,0.2537,0.2515,0.2507,0.2515,0.2486,0.2485,0.2493,0.2494,0.25,0.2492,0.2492,0.2491,0.2491,0,0.2806,0.2783,0.2753,0.272,0.2711,0.2696,0.2668,0.2649,0.2622,0.2609,0.259,0.2573,0.2551,0.2547,0.2516,0.2522,0.2509,0.2496,0.2495,0.2491,0.2488,0.2489,0.249,0.2488,0.2489,0.2489,0.2489,0,0.2816,0.2777,0.2754,0.2742,0.2703,0.2693,0.2676,0.2649,0.2634,0.261,0.2599,0.2573,0.2558,0.2538,0.2514,0.2514,0.2486,0.248,0.2474,0.2475,0.2469,0.2469,0.2467,0.2461,0.2461,0.2461,0.2461,0,0.281,0.2793,0.2759,0.2745,0.2725,0.27,0.2681,0.2662,0.2639,0.2621,0.2601,0.2584,0.2555,0.2534,0.2516,0.2493,0.2487,0.2476,0.2471,0.2477,0.2478,0.2467,0.2467,0.2461,0.2461,0.2461,0.2461,0,0.2818,0.2795,0.2768,0.2735,0.2726,0.2712,0.2683,0.2669,0.265,0.2627,0.262,0.2591,0.2566,0.2541,0.2507,0.2495,0.2472,0.2466,0.2482,0.2479,0.2474,0.2475,0.2464,0.2461,0.2458,0.2458,0.2458,0,0.2815,0.2802,0.2767,0.2754,0.2738,0.2717,0.2701,0.2676,0.2661,0.2629,0.2619,0.2592,0.257,0.2531,0.2506,0.2481,0.2473,0.2471,0.2469,0.2476,0.2473,0.2474,0.2472,0.2472,0.2472,0.2472,0.2472,0,0.2813,0.2803,0.2781,0.2755,0.2737,0.2716,0.2694,0.2684,0.2655,0.2639,0.2613,0.2596,0.2562,0.2537,0.2508,0.2491,0.2477,0.2474,0.2471,0.2477,0.2486,0.2481,0.2483,0.2474,0.2473,0.2473,0.2473,0.2473,0.2815,0.2802,0.2776,0.2753,0.2734,0.2714,0.2698,0.2678,0.2657,0.2628,0.2615,0.2589,0.2563,0.2523,0.2506,0.2486,0.2482,0.2478,0.2477,0.2476,0.2478,0.249,0.2481,0.2481,0.248,0.248,0.248,0,0.2812,0.2794,0.2773,0.2743,0.2725,0.2714,0.2689,0.2675,0.2653,0.263,0.2609,0.258,0.2555,0.2529,0.2502,0.2491,0.2484,0.2485,0.2485,0.2481,0.2483,0.2488,0.2491,0.2491,0.2491,0.2491,0.2491,0.2491,0.2808,0.2785,0.2772,0.2739,0.2722,0.2697,0.2684,0.2665,0.2647,0.2616,0.2595,0.2579,0.2554,0.2526,0.2503,0.2496,0.2487,0.2489,0.248,0.2482,0.2481,0.248,0.2485,0.2488,0.2488,0.2481,0.2481,0.248]},{"header":{"parameterUnit":"m.s-1","parameterCategory":1,"la1":30.2991,"la2":30.254,"lo1":-89.0895,"lo2":-89.0444,"dy":0.0017,"dx":0.0017,"nx":28,"ny":28,"refTime":"2024-02-18T09:00:00:Z","depth":0,"parameterNumber":3,"parameterNumberName":"V-component_of_WINDS"},"data":[0,0,0,0,0,0,0,0,0,0,0,0,0,0,0,0,0,0,0,0,0,0,0,0,0,0,0,0,0,0,0,0,0,0,0,0,0,0,0,0,0,0,0,0,0,0,0,0,0,0,0,0,0,0,0,0,0,0,-5.3705,-5.3706,0,-5.3791,-5.3792,-5.3793,-5.3768,-5.3766,-5.3765,-5.3763,-5.3845,-5.3849,-5.3853,0,0,0,0,0,0,0,0,0,0,0,0,0,-5.3513,-5.3517,-5.3705,-5.3706,-5.3707,-5.3791,-5.3792,-5.3794,-5.3769,-5.3766,-5.3764,-5.3762,-5.3844,-5.3849,-5.3853,0,0,0,0,0,0,0,0,0,0,0,0,0,-5.3597,-5.3518,-5.3705,-5.3705,-5.3706,-5.3791,-5.3792,-5.3794,-5.3769,-5.3766,-5.3764,-5.3761,-5.3843,-5.3848,-5.3854,-5.3942,0,0,-5.3871,-5.3874,0,0,0,0,0,0,0,0,-5.3593,-5.3605,-5.3704,-5.3705,-5.3706,-5.3766,-5.3755,-5.3843,-5.377,-5.3745,-5.3763,-5.376,-5.3821,-5.3828,-5.385,-5.3946,-5.395,-5.3872,-5.3875,-5.3878,-5.388,0,0,0,0,0,0,0,-5.3587,-5.3601,-5.3739,-5.3705,-5.3707,-5.3699,-5.3708,-5.3772,-5.3796,-5.3747,-5.3745,-5.3756,-5.3821,-5.3845,-5.3852,-5.3951,-5.3872,-5.3877,-5.388,-5.3883,-5.4125,-5.4128,0,0,0,0,0,0,-5.3581,-5.3596,-5.3736,-5.3741,-5.3642,-5.3705,-5.3715,-5.375,-5.3796,-5.38,-5.3758,-5.3755,-5.3836,-5.3845,-5.3855,-5.3962,-5.3878,-5.3883,-5.3887,-5.4122,-5.4125,-5.4129,0,0,0,0,0,0,-5.3577,-5.3594,-5.3733,-5.3668,-5.3686,-5.3711,-5.375,-5.3753,-5.3776,-5.3804,-5.3808,-5.3778,-5.3834,-5.3846,-5.3921,-5.3965,-5.3886,-5.3891,-5.4118,-5.4123,-5.4127,-5.4177,0,0,0,0,0,0,-5.3572,-5.3592,-5.3627,-5.3669,-5.3689,-5.38,-5.3753,-5.3756,-5.3787,-5.3783,-5.3824,-5.3828,-5.3833,-5.3913,-5.3927,-5.3971,-5.3896,-5.4114,-5.412,-5.4126,-5.4172,-5.4183,-5.4192,0,0,0,0,0,-5.3565,-5.3636,-5.3629,-5.3646,-5.3734,-5.3802,-5.3813,-5.3819,-5.3791,-5.3825,-5.3844,-5.3827,-5.3958,-5.3921,-5.3937,-5.3983,-5.4112,-5.4119,-5.4125,-5.4167,-5.4181,-5.4192,0,0,0,0,0,0,-5.3596,-5.3642,-5.3634,-5.3722,-5.3759,-5.3798,-5.3842,-5.3833,-5.3877,-5.3871,-5.3874,-5.3884,-5.3961,-5.3979,-5.3937,-5.4071,-5.403,-5.404,-5.4057,-5.407,-5.408,-5.4074,-5.39,0,0,0,0,0,-5.3614,-5.3668,-5.3704,-5.3777,-5.3797,-5.3816,-5.3846,-5.3848,-5.3885,-5.39,-5.3923,-5.3958,-5.4007,-5.4039,-5.4086,-5.4174,-5.4183,-5.4214,-5.4224,-5.4232,-5.4241,-5.429,-5.4305,-5.4151,-5.4151,-5.415,0,0,-5.3649,-5.3681,-5.3714,-5.3785,-5.3813,-5.3868,-5.3829,-5.3888,-5.3928,-5.3908,-5.3981,-5.4,-5.4039,-5.4122,-5.4159,-5.4139,-5.4286,-5.4241,-5.4247,-5.4252,-5.4299,-5.4313,-5.4326,-5.4155,-5.4154,-5.4154,0,0,-5.3743,-5.3773,-5.3838,-5.3868,-5.3913,-5.3926,-5.3942,-5.3983,-5.3995,-5.4069,-5.4056,-5.4102,-5.4187,-5.4216,-5.4242,-5.4348,-5.4335,-5.4363,-5.4416,-5.4464,-5.4476,-5.4487,-5.4526,-5.454,-5.4371,-5.4372,-5.4372,0,-5.3781,-5.3865,-5.3872,-5.3934,-5.3965,-5.3952,-5.4018,-5.4046,-5.4102,-5.4124,-5.4101,-5.4208,-5.4233,-5.4323,-5.4349,-5.437,-5.4388,-5.4358,-5.4474,-5.4485,-5.4495,-5.4532,-5.4547,-5.4375,-5.4374,-5.4374,-5.4374,0,-5.391,-5.3968,-5.4016,-5.4074,-5.4111,-5.4173,-5.4189,-5.4225,-5.4224,-5.4238,-5.4314,-5.4344,-5.4397,-5.4419,-5.4417,-5.4508,-5.4495,-5.4473,-5.4432,-5.4513,-5.4548,-5.4562,-5.4379,-5.4378,-5.4377,-5.4376,0,0,-5.4025,-5.4089,-5.4106,-5.4133,-5.4183,-5.4227,-5.4289,-5.4343,-5.4374,-5.4413,-5.4465,-5.4538,-5.4519,-5.4548,-5.4549,-5.4591,-5.4675,-5.4565,-5.4566,-5.4585,-5.4778,-5.4795,-5.4811,-5.4666,-5.4669,-5.4671,-5.4775,0,-5.4124,-5.4236,-5.4245,-5.4346,-5.44,-5.4389,-5.4443,-5.4478,-5.4494,-5.454,-5.4556,-5.4609,-5.4579,-5.4597,-5.4638,-5.4656,-5.4714,-5.4649,-5.4714,-5.4716,-5.4705,-5.4829,-5.4847,-5.4944,-5.4789,-5.4791,-5.4793,0,-5.4254,-5.4301,-5.4408,-5.4451,-5.4474,-5.4523,-5.4574,-5.4619,-5.4659,-5.4667,-5.4701,-5.4697,-5.476,-5.4716,-5.4802,-5.4758,-5.4785,-5.4798,-5.4802,-5.4808,-5.476,-5.484,-5.4975,-5.499,-5.4814,-5.4813,-5.4811,0,-5.4328,-5.4418,-5.4494,-5.4517,-5.4569,-5.4604,-5.4627,-5.4664,-5.4697,-5.4741,-5.4762,-5.4812,-5.4839,-5.4877,-5.4886,-5.4854,-5.4972,-5.4929,-5.498,-5.498,-5.5006,-5.5005,-5.5148,-5.5023,-5.5022,-5.5022,-5.5022,0,-5.4438,-5.4504,-5.4529,-5.4575,-5.4649,-5.4658,-5.4729,-5.475,-5.4783,-5.4833,-5.4825,-5.4871,-5.488,-5.4928,-5.4935,-5.5006,-5.5017,-5.5025,-5.5027,-5.5027,-5.5026,-5.5045,-5.5038,-5.5026,-5.5025,-5.5024,-5.5024,0,-5.4534,-5.4553,-5.4635,-5.4679,-5.4691,-5.4744,-5.478,-5.4824,-5.484,-5.4902,-5.4917,-5.4941,-5.4997,-5.501,-5.5075,-5.508,-5.5164,-5.5158,-5.5152,-5.5151,-5.5202,-5.5197,-5.5363,-5.5386,-5.5245,-5.5246,-5.5247,0,-5.4603,-5.4654,-5.4704,-5.4738,-5.4764,-5.4818,-5.4852,-5.4863,-5.4898,-5.4948,-5.4986,-5.5042,-5.5087,-5.5176,-5.5198,-5.5248,-5.5244,-5.5298,-5.5251,-5.525,-5.5246,-5.5243,-5.5248,-5.5307,-5.5309,-5.531,-5.5311,0,-5.4724,-5.4731,-5.4782,-5.4837,-5.4879,-5.4922,-5.4963,-5.499,-5.5006,-5.5046,-5.5105,-5.514,-5.5209,-5.5264,-5.5315,-5.5336,-5.5327,-5.5326,-5.5341,-5.5342,-5.5336,-5.5341,-5.5177,-5.5322,-5.5321,-5.532,-5.532,-5.5319,-5.4809,-5.4854,-5.4898,-5.4955,-5.4987,-5.5026,-5.5071,-5.5093,-5.5143,-5.5201,-5.5204,-5.5268,-5.5306,-5.5374,-5.5399,-5.5447,-5.543,-5.5451,-5.5457,-5.5462,-5.5467,-5.5328,-5.5456,-5.5456,-5.5456,-5.5456,-5.5455,0,-5.493,-5.4958,-5.5011,-5.507,-5.5115,-5.5104,-5.5149,-5.5187,-5.5244,-5.5282,-5.5328,-5.5395,-5.5449,-5.5476,-5.5529,-5.5563,-5.556,-5.5576,-5.5574,-5.5579,-5.5479,-5.5461,-5.5578,-5.5578,-5.5578,-5.5578,-5.5578,-5.5578,-5.4998,-5.5076,-5.5088,-5.5181,-5.5208,-5.5273,-5.53,-5.5335,-5.5366,-5.5443,-5.5488,-5.5506,-5.5539,-5.5595,-5.5644,-5.565,-5.567,-5.5689,-5.5693,-5.5599,-5.5586,-5.5574,-5.5558,-5.5693,-5.5693,-5.579,-5.5791,-5.5791]}]]